Vertical_Velocity
3 2 1 1 -0 1 2 -0 -1 -1 -0 -0 -1 -1 -1 -1 -1 -0 1 -1 -1 0 -1 0 -0 0 -1 -2 -1 -2 -2 -0 0 -1 0 -1 -1 1 -1 -1 -1 -1 -2
2 2 3 2 0 2 2 -3 -1 -1 -1 -0 -0 -2 -1 0 -0 -1 -1 -1 -1 -1 -2 0 0 0 -0 -1 -1 -2 -1 -0 -2 -2 -2 -0 -1 1 -0 -1 1 -1 -0
2 1 2 1 1 2 3 -1 1 -1 1 0 1 0 0 0 -0 1 0 -0 -1 0 1 -1 -1 -1 -2 -0 -0 -1 -2 -1 -1 -0 -2 -2 -1 1 -1 -1 -1 -1 -1
1 2 2 -0 0 1 0 0 0 1 1 -0 1 0 -1 0 -0 -1 -0 0 -1 -1 -0 0 -1 -0 0 0 -0 -0 -1 -1 -1 -1 -1 -0 -0 -1 -0 -1 -1 -2 -1
1 -1 1 2 2 1 0 -0 0 -0 -0 1 1 1 -1 0 1 1 -0 0 1 0 -0 1 1 1 1 0 -1 -0 -0 -1 -1 -2 -0 -1 -1 -1 -1 -0 -0 -0 -1
-0 -3 1 1 2 -1 0 0 -2 -2 0 1 1 1 0 0 0 -0 -0 0 0 -1 -1 -1 -0 -1 -1 -0 -0 1 0 -1 -0 -1 -2 -1 -1 -2 -2 -3 -2 -2 -2
-1 -0 2 1 -2 0 1 -1 -0 -0 -0 1 -0 0 0 -2 0 -1 -1 0 0 -0 -1 -1 -2 -1 -1 -1 -1 -1 -1 0 1 -1 -0 -2 -1 -2 -2 -2 -3 -1 -1
1 -2 1 -0 -1 1 -0 -1 -0 1 -1 1 0 1 -1 -1 1 2 2 2 1 1 0 -0 -2 -2 -2 -3 -2 -1 -1 -1 0 -0 0 0 -1 -1 -2 -2 -1 -3 -3
0 1 4 -0 -1 0 -1 1 0 1 -0 -1 -1 1 -2 -1 0 -0 -0 0 -0 -0 0 -0 -0 -1 -2 -2 -1 0 -1 -1 -1 -0 0 -0 -0 -2 -1 -2 -1 -1 -0
1 -1 3 1 1 -2 3 -1 2 2 -1 -0 -1 -0 -1 -0 -2 -1 -0 -0 0 -1 -0 0 -0 -1 -1 -1 -0 0 -1 -2 -1 -2 -2 -1 -1 -1 -1 -2 -3 0 -1
-1 5 -4 -1 0 -1 3 2 -3 -1 0 1 0 -0 -1 -0 -0 1 -1 -1 1 1 2 1 1 -0 -1 -1 -1 -0 -0 -1 -1 -1 -1 -2 -2 -3 -2 -0 -1 -5 0
1 3 4 5 -1 -0 -3 2 3 -1 3 -0 1 3 1 -1 -0 -0 -0 -0 -1 0 1 1 -0 -0 -0 -1 0 -1 -1 -2 -1 -2 -2 -2 -3 -2 -2 -2 -1 -2 1
-5 -3 1 -0 2 -3 2 -0 3 1 4 -0 2 -7 3 -4 -3 -1 0 -0 -1 -3 -1 1 1 -0 -2 -1 -0 1 -1 0 -1 -1 -1 -2 -2 -1 -2 -2 -2 -2 -6
4 1 4 4 2 7 -5 8 -2 7 1 3 1 -8 -2 1 -4 -3 0 -0 -1 -1 -4 0 -1 -0 -1 -3 -3 -3 -4 -2 -3 -3 -3 -2 -3 -2 -2 -2 -5 -4 -3
3 1 2 5 7 4 9 -8 5 1 1 1 1 -10 -3 -0 -3 -3 2 2 -0 -1 -6 -6 -2 -2 -0 -0 1 -1 -2 -3 -3 -2 -1 -2 -2 -3 -4 -3 -2 -4 -3
1 7 6 7 4 0 3 -4 4 -2 8 3 1 -6 -3 -2 0 -6 3 0 2 2 -2 -4 -6 -2 -2 -1 1 -1 -1 -1 -1 -3 -3 -3 -3 -2 -2 -2 -3 -4 -2
0 1 5 4 2 3 7 4 7 -2 10 -3 4 1 -0 -2 -4 -1 2 -1 0 2 -1 -1 -1 -2 -5 -4 -3 -1 -1 -3 -2 -2 -1 1 -2 -2 -1 -1 -2 -1 -2
3 5 1 6 9 7 4 2 1 -1 -0 -7 3 1 -3 -0 -3 2 2 2 0 1 2 -1 -1 -2 -4 -0 -1 -3 -5 -1 -1 -2 -3 -5 -5 -1 -1 -2 -2 1 -2
6 7 6 6 4 8 5 2 3 0 -0 1 -2 -4 7 -3 0 -0 5 2 0 0 3 0 -2 -1 -3 -3 -2 -2 -2 -4 -4 -6 -2 1 1 4 1 1 2 -4 -4
4 4 0 5 10 3 2 3 -1 -4 -7 12 -4 -1 -1 3 -1 3 4 1 -1 -1 1 -0 -1 -2 -2 -3 1 -3 -13 -2 -8 -3 3 3 2 1 -1 1 -1 -1 2
4 10 5 6 3 1 0 -3 2 -9 3 1 -2 -0 -1 -4 3 2 2 -0 0 0 -1 -2 -2 -1 -2 -2 1 -5 -7 -3 -5 -5 -1 2 0 -4 -3 -1 -3 1 1
10 5 4 2 0 0 -4 -12 2 -6 -2 -3 -2 -3 2 7 4 1 1 2 2 -0 -1 3 -1 -1 -1 -2 -2 -1 -2 1 -11 -12 -10 -3 -8 -5 -3 -4 -3 -2 -3
6 10 5 4 2 -2 2 6 -5 -7 -11 -7 4 3 3 -0 1 -1 -2 1 -1 -1 3 6 3 -0 -1 -1 -2 -3 0 1 -0 -3 -7 -9 3 -9 -1 -8 -2 -0 -2
0 -7 -8 -5 -3 3 -0 -14 3 -4 5 2 2 -1 -3 -1 1 -2 1 0 -1 -1 1 -0 1 -1 -3 -5 2 5 0 2 -2 -2 -1 -23 10 -6 -5 -4 -4 -3 -0
-1 3 10 -3 -7 -9 -0 8 4 0 4 -4 -3 0 1 -1 -1 3 0 2 2 -1 -2 1 0 -0 1 0 3 3 -4 -2 -9 -8 -1 -3 -4 -14 1 -6 -6 -4 -3
2 -11 6 -6 -16 12 3 -2 0 -2 -2 -1 3 0 -1 -2 0 1 6 3 -3 -4 -2 -5 -0 2 5 2 4 6 3 -1 3 -15 2 -0 -1 4 -19 -8 -6 -2 -1
Height
1531 1532 1534 1535 1537 1538 1538 1539 1540 1540 1540 1539 1539 1539 1538 1538 1537 1537 1538 1538 1538 1538 1538 1537 1537 1537 1537 1536 1536 1534 1533 1532 1530 1530 1529 1528 1527 1527 1525 1525 1525 1525 1525
1529 1531 1532 1534 1535 1536 1537 1538 1539 1539 1539 1538 1537 1537 1536 1536 1536 1536 1537 1537 1537 1537 1537 1537 1537 1537 1536 1535 1534 1533 1532 1530 1529 1528 1527 1526 1525 1523 1522 1522 1522 1521 1522
1527 1529 1531 1532 1534 1536 1536 1537 1537 1537 1537 1537 1536 1535 1535 1535 1535 1535 1535 1536 1536 1537 1537 1536 1536 1535 1535 1534 1533 1531 1529 1528 1527 1526 1525 1523 1522 1520 1519 1518 1517 1517 1518
1524 1526 1529 1530 1532 1534 1535 1536 1536 1536 1536 1535 1535 1534 1534 1534 1534 1535 1535 1535 1535 1536 1536 1535 1534 1534 1533 1532 1531 1529 1528 1526 1524 1523 1522 1521 1519 1517 1516 1515 1514 1513 1513
1520 1523 1525 1527 1530 1531 1533 1534 1534 1535 1535 1534 1533 1532 1532 1533 1533 1534 1534 1535 1535 1534 1534 1533 1533 1532 1531 1530 1528 1527 1525 1523 1521 1519 1518 1517 1515 1514 1513 1511 1511 1510 1509
1515 1518 1521 1525 1526 1528 1529 1530 1532 1532 1533 1532 1531 1531 1531 1531 1532 1532 1533 1533 1532 1532 1532 1531 1531 1530 1529 1527 1526 1524 1522 1521 1519 1517 1515 1513 1512 1511 1509 1508 1508 1507 1506
1511 1514 1517 1520 1523 1524 1526 1528 1528 1529 1530 1529 1529 1530 1530 1531 1531 1531 1531 1531 1531 1530 1529 1529 1528 1527 1525 1524 1522 1521 1519 1517 1516 1514 1512 1510 1509 1507 1506 1505 1505 1504 1503
1506 1509 1513 1515 1518 1520 1522 1523 1524 1525 1527 1527 1526 1527 1528 1531 1529 1529 1529 1529 1528 1528 1526 1525 1524 1523 1521 1519 1518 1516 1515 1514 1512 1511 1509 1508 1506 1505 1503 1502 1501 1500 1499
1501 1504 1508 1510 1514 1515 1518 1520 1521 1522 1523 1524 1524 1525 1525 1525 1526 1526 1526 1527 1526 1525 1524 1523 1521 1519 1517 1515 1513 1511 1510 1508 1507 1507 1506 1504 1502 1501 1499 1497 1495 1494 1493
1495 1499 1502 1505 1508 1511 1513 1515 1517 1518 1520 1520 1521 1521 1521 1522 1522 1523 1524 1523 1522 1522 1521 1520 1517 1515 1513 1511 1509 1506 1504 1503 1502 1501 1499 1498 1496 1494 1493 1490 1489 1488 1486
1489 1492 1496 1499 1502 1506 1508 1510 1512 1513 1515 1516 1517 1517 1518 1518 1519 1519 1518 1519 1519 1519 1518 1516 1513 1510 1508 1506 1504 1502 1500 1498 1496 1494 1492 1490 1488 1487 1485 1483 1482 1480 1479
1482 1485 1488 1491 1495 1499 1502 1505 1507 1509 1510 1512 1513 1514 1514 1515 1515 1516 1515 1514 1513 1513 1513 1511 1508 1506 1503 1501 1499 1496 1494 1491 1488 1486 1483 1482 1480 1479 1477 1475 1474 1472 1471
1473 1478 1480 1483 1487 1492 1495 1498 1502 1503 1505 1506 1508 1510 1510 1510 1512 1512 1510 1508 1507 1505 1505 1505 1502 1500 1498 1496 1494 1491 1487 1484 1481 1478 1475 1473 1471 1469 1467 1466 1465 1463 1462
1465 1471 1474 1476 1480 1485 1489 1492 1496 1499 1500 1502 1503 1505 1508 1506 1506 1507 1506 1504 1501 1499 1498 1498 1497 1494 1491 1489 1486 1482 1479 1476 1472 1469 1466 1464 1462 1460 1458 1457 1455 1454 1453
1458 1463 1467 1470 1474 1479 1481 1486 1489 1494 1494 1496 1497 1499 1501 1501 1501 1502 1502 1498 1496 1493 1491 1490 1490 1488 1485 1482 1479 1474 1471 1468 1465 1461 1459 1456 1453 1452 1450 1449 1448 1446 1444
1452 1454 1458 1463 1469 1473 1477 1479 1484 1491 1490 1492 1492 1493 1496 1496 1495 1498 1497 1494 1491 1488 1485 1483 1483 1482 1479 1476 1473 1468 1465 1461 1458 1455 1451 1448 1446 1445 1443 1442 1440 1438 1436
1444 1450 1454 1460 1464 1467 1471 1474 1480 1486 1487 1488 1490 1489 1492 1492 1492 1493 1491 1488 1486 1483 1479 1476 1475 1475 1471 1469 1466 1463 1459 1455 1451 1448 1444 1441 1438 1437 1435 1433 1431 1429 1427
1438 1443 1449 1455 1458 1461 1466 1469 1475 1477 1483 1484 1489 1488 1488 1487 1488 1489 1486 1481 1480 1478 1474 1470 1469 1467 1465 1462 1458 1454 1452 1449 1444 1441 1438 1434 1431 1429 1426 1424 1422 1420 1418
1434 1437 1443 1448 1453 1458 1463 1467 1473 1475 1479 1480 1485 1485 1485 1482 1483 1483 1479 1476 1474 1472 1469 1465 1462 1461 1457 1455 1450 1447 1443 1439 1437 1434 1430 1427 1424 1421 1418 1416 1413 1410 1407
1430 1432 1438 1444 1450 1455 1460 1466 1467 1468 1479 1477 1479 1480 1480 1479 1478 1477 1473 1470 1468 1466 1464 1461 1458 1455 1453 1450 1446 1440 1434 1433 1428 1426 1423 1419 1417 1414 1411 1408 1404 1400 1397
1426 1429 1435 1443 1449 1454 1459 1462 1463 1470 1475 1474 1476 1476 1475 1474 1472 1470 1467 1465 1463 1460 1458 1456 1453 1451 1447 1444 1440 1436 1430 1426 1422 1419 1414 1410 1407 1404 1402 1399 1395 1391 1388
1424 1430 1435 1442 1448 1452 1456 1458 1460 1467 1470 1471 1472 1472 1471 1469 1466 1464 1463 1461 1460 1456 1454 1451 1449 1445 1442 1439 1435 1431 1426 1421 1414 1411 1407 1401 1401 1396 1393 1389 1385 1381 1378
1423 1431 1438 1444 1448 1452 1456 1459 1460 1462 1465 1467 1468 1466 1466 1463 1461 1458 1458 1455 1453 1452 1450 1448 1444 1441 1436 1434 1430 1425 1422 1416 1411 1407 1404 1389 1392 1386 1384 1380 1378 1373 1368
1428 1433 1440 1447 1451 1451 1452 1454 1458 1459 1461 1461 1462 1461 1459 1458 1456 1454 1452 1449 1447 1445 1443 1441 1438 1434 1431 1428 1425 1420 1415 1409 1404 1402 1402 1385 1383 1377 1374 1369 1367 1364 1361
1431 1437 1442 1447 1451 1456 1456 1457 1456 1456 1457 1457 1458 1457 1454 1453 1451 1450 1446 1444 1441 1438 1437 1435 1432 1429 1426 1423 1419 1413 1409 1403 1396 1393 1392 1384 1376 1368 1363 1357 1355 1354 1351
1435 1441 1443 1446 1449 1455 1454 1453 1455 1455 1455 1454 1455 1453 1451 1449 1446 1444 1442 1438 1434 1433 1431 1427 1425 1422 1419 1416 1413 1409 1404 1399 1394 1384 1384 1379 1372 1367 1352 1347 1345 1343 1340